• In United Kingdom
  • List of Countries
  • For 7 days
  • Water Temperature
  • Satellite Maps
  • Weather Map
  • Weather Widgets
  • user-avatar
    Login

    Hourly Weather Reykjavík

    Today, 23 May, Wednesday

    Time Temperature Precipitation Wind Pressure Humidity
    00:00 +5°C° 0.3 mm 10 mps 751 mmHg 83%
    01:00 +3°C° 0.3 mm 10 mps 751 mmHg 82%
    02:00 +3°C° 0.3 mm 11 mps 751 mmHg 82%
    03:00 +3°C° 0.2 mm 11 mps 752 mmHg 80%
    04:00 +3°C° 0.2 mm 11 mps 753 mmHg 78%
    05:00 +3°C° 0 mm 11 mps 754 mmHg 76%
    06:00 +3°C° 0.1 mm 11 mps 754 mmHg 74%
    07:00 +4°C° 0.1 mm 11 mps 755 mmHg 72%
    08:00 +4°C° 0.1 mm 11 mps 756 mmHg 70%
    09:00 +4°C° 0.1 mm 11 mps 757 mmHg 69%
    10:00 +5°C° 0.1 mm 10 mps 758 mmHg 67%
    11:00 +5°C° 0.1 mm 10 mps 758 mmHg 66%
    12:00 +5°C° 0.1 mm 9 mps 759 mmHg 66%
    13:00 +5°C° 0.1 mm 9 mps 759 mmHg 66%
    14:00 +5°C° 0.1 mm 8 mps 760 mmHg 66%
    15:00 +5°C° 0.1 mm 8 mps 760 mmHg 66%
    16:00 +5°C° 0.1 mm 7 mps 760 mmHg 66%
    17:00 +5°C° 0.1 mm 7 mps 761 mmHg 67%
    18:00 +5°C° 0 mm 6 mps 761 mmHg 68%
    19:00 +6°C° 0 mm 5 mps 761 mmHg 70%
    20:00 +6°C° 0 mm 4 mps 761 mmHg 71%
    21:00 +5°C° 0 mm 3 mps 761 mmHg 74%
    22:00 +5°C° 0 mm 3 mps 761 mmHg 78%
    23:00 +5°C° 0 mm 2 mps 761 mmHg 81%

    Tomorrow, 24 May, Thursday

    Time Temperature Precipitation Wind Pressure Humidity
    00:00 +5°C° 0 mm 2 mps 761 mmHg 82%
    01:00 +6°C° 0 mm 1 mps 760 mmHg 82%
    02:00 +6°C° 0 mm 1 mps 760 mmHg 83%
    03:00 +6°C° 0 mm 1 mps 760 mmHg 82%
    04:00 +6°C° 0 mm 1 mps 760 mmHg 81%
    05:00 +6°C° 0 mm 1 mps 760 mmHg 80%
    06:00 +7°C° 0.1 mm 1 mps 760 mmHg 76%
    07:00 +6°C° 0.1 mm 2 mps 760 mmHg 73%
    08:00 +7°C° 0.1 mm 2 mps 760 mmHg 69%
    09:00 +7°C° 0.1 mm 3 mps 760 mmHg 69%
    10:00 +6°C° 0.1 mm 4 mps 760 mmHg 68%
    11:00 +7°C° 0.1 mm 5 mps 760 mmHg 67%
    12:00 +7°C° 0.1 mm 6 mps 761 mmHg 64%
    13:00 +6°C° 0.1 mm 7 mps 761 mmHg 62%
    14:00 +6°C° 0.1 mm 7 mps 761 mmHg 59%
    15:00 +5°C° 0.1 mm 8 mps 762 mmHg 59%
    16:00 +5°C° 0.1 mm 8 mps 762 mmHg 59%
    17:00 +5°C° 0.1 mm 8 mps 762 mmHg 59%
    18:00 +5°C° 0.1 mm 8 mps 763 mmHg 63%
    19:00 +4°C° 0.1 mm 8 mps 763 mmHg 67%
    20:00 +4°C° 0.1 mm 8 mps 763 mmHg 71%
    21:00 +4°C° 0.2 mm 8 mps 763 mmHg 74%
    22:00 +2°C° 0.2 mm 9 mps 763 mmHg 77%
    23:00 +2°C° 0.2 mm 9 mps 763 mmHg 79%

    Day after tomorrow, 25 May, Friday

    Time Temperature Precipitation Wind Pressure Humidity
    00:00 +3°C° 0.7 mm 10 mps 762 mmHg 82%
    01:00 +3°C° 0.7 mm 10 mps 762 mmHg 85%
    02:00 +3°C° 0.7 mm 10 mps 761 mmHg 88%
    03:00 +3°C° 0.2 mm 10 mps 761 mmHg 87%
    04:00 +3°C° 0.2 mm 10 mps 761 mmHg 85%
    05:00 +3°C° 0.2 mm 10 mps 761 mmHg 84%
    06:00 +3°C° 0.1 mm 10 mps 762 mmHg 83%
    07:00 +3°C° 0.1 mm 9 mps 762 mmHg 82%
    08:00 +3°C° 0.1 mm 9 mps 763 mmHg 81%
    09:00 +4°C° 0.2 mm 8 mps 763 mmHg 80%
    10:00 +5°C° 0.2 mm 7 mps 764 mmHg 79%
    11:00 +5°C° 0.2 mm 7 mps 764 mmHg 79%
    12:00 +5°C° 0.4 mm 7 mps 764 mmHg 82%
    13:00 +5°C° 0.4 mm 7 mps 764 mmHg 85%
    14:00 +6°C° 0.4 mm 7 mps 764 mmHg 88%
    15:00 +6°C° 1 mm 8 mps 763 mmHg 89%
    16:00 +6°C° 1 mm 9 mps 763 mmHg 91%
    17:00 +6°C° 1 mm 9 mps 762 mmHg 93%
    18:00 +6°C° 1.4 mm 10 mps 762 mmHg 93%
    19:00 +6°C° 1.4 mm 11 mps 761 mmHg 93%
    20:00 +5°C° 1.4 mm 12 mps 760 mmHg 93%
    21:00 +5°C° 1.4 mm 13 mps 760 mmHg 93%
    22:00 +5°C° 1.4 mm 14 mps 759 mmHg 92%
    23:00 +5°C° 1.4 mm 14 mps 759 mmHg 92%

    26 May, Saturday

    Time Temperature Precipitation Wind Pressure Humidity
    00:00 +5°C° 1 mm 14 mps 758 mmHg 93%
    01:00 +5°C° 1 mm 13 mps 758 mmHg 94%
    02:00 +5°C° 1 mm 12 mps 758 mmHg 95%
    03:00 +6°C° 0.4 mm 11 mps 757 mmHg 95%
    04:00 +6°C° 0.4 mm 11 mps 757 mmHg 95%
    05:00 +6°C° 0.4 mm 10 mps 757 mmHg 96%
    06:00 +6°C° 1.4 mm 10 mps 757 mmHg 96%
    07:00 +6°C° 1.4 mm 9 mps 757 mmHg 96%
    08:00 +6°C° 1.4 mm 9 mps 757 mmHg 96%
    09:00 +7°C° 0.7 mm 9 mps 757 mmHg 96%
    10:00 +7°C° 0.7 mm 8 mps 757 mmHg 95%
    11:00 +9°C° 0.7 mm 8 mps 757 mmHg 95%
    12:00 +7°C° 1.3 mm 8 mps 758 mmHg 96%
    13:00 +7°C° 1.3 mm 8 mps 758 mmHg 96%
    14:00 +7°C° 1.3 mm 8 mps 758 mmHg 96%
    15:00 +9°C° 2.3 mm 8 mps 758 mmHg 96%
    16:00 +8°C° 2.3 mm 9 mps 758 mmHg 96%
    17:00 +8°C° 2.3 mm 10 mps 759 mmHg 96%
    18:00 +8°C° 1.3 mm 10 mps 759 mmHg 96%
    19:00 +8°C° 1.3 mm 10 mps 759 mmHg 96%
    20:00 +8°C° 1.3 mm 11 mps 759 mmHg 96%
    21:00 +8°C° 0.9 mm 10 mps 759 mmHg 97%
    22:00 +8°C° 0.9 mm 9 mps 760 mmHg 97%
    23:00 +8°C° 0.9 mm 9 mps 760 mmHg 97%

    27 May, Sunday

    Time Temperature Precipitation Wind Pressure Humidity
    00:00 +7°C° 1.2 mm 8 mps 761 mmHg 97%
    01:00 +8°C° 1.2 mm 7 mps 761 mmHg 97%
    02:00 +8°C° 1.2 mm 6 mps 761 mmHg 97%
    03:00 +8°C° 0.9 mm 6 mps 762 mmHg 97%
    04:00 +8°C° 0.9 mm 6 mps 762 mmHg 96%
    05:00 +8°C° 0.9 mm 6 mps 762 mmHg 96%
    06:00 +8°C° 0.5 mm 6 mps 762 mmHg 96%
    07:00 +8°C° 0.5 mm 7 mps 762 mmHg 96%
    08:00 +8°C° 0.5 mm 7 mps 762 mmHg 96%
    09:00 +9°C° 0.8 mm 8 mps 762 mmHg 92%
    10:00 +8°C° 0.8 mm 9 mps 762 mmHg 87%
    11:00 +8°C° 0.8 mm 10 mps 762 mmHg 82%
    12:00 +9°C° 0 mm 12 mps 761 mmHg 78%
    13:00 +10°C° 0 mm 13 mps 760 mmHg 74%
    14:00 +12°C° 0 mm 14 mps 760 mmHg 70%
    15:00 +12°C° 0 mm 13 mps 759 mmHg 76%
    16:00 +10°C° 0 mm 13 mps 759 mmHg 81%
    17:00 +10°C° 0 mm 13 mps 759 mmHg 87%
    18:00 +9°C° 0 mm 11 mps 759 mmHg 88%
    19:00 +8°C° 0 mm 10 mps 760 mmHg 89%
    20:00 +8°C° 0 mm 9 mps 760 mmHg 90%
    21:00 +9°C° 0.1 mm 8 mps 760 mmHg 91%
    22:00 +8°C° 0.1 mm 7 mps 760 mmHg 92%
    23:00 +8°C° 0.1 mm 6 mps 761 mmHg 93%

    28 May, Monday

    Time Temperature Precipitation Wind Pressure Humidity
    00:00 +8°C° 0.1 mm 6 mps 760 mmHg 93%
    01:00 +8°C° 0.1 mm 6 mps 760 mmHg 93%
    02:00 +8°C° 0.1 mm 5 mps 760 mmHg 93%
    03:00 +8°C° 0 mm 6 mps 760 mmHg 93%
    04:00 +8°C° 0 mm 7 mps 759 mmHg 92%
    05:00 +9°C° 0 mm 8 mps 759 mmHg 92%
    06:00 +8°C° 0 mm 9 mps 759 mmHg 90%
    07:00 +10°C° 0 mm 9 mps 759 mmHg 89%
    08:00 +11°C° 0 mm 10 mps 759 mmHg 87%
    09:00 +11°C° 0 mm 11 mps 758 mmHg 85%
    10:00 +12°C° 0 mm 11 mps 758 mmHg 82%
    11:00 +12°C° 0 mm 12 mps 757 mmHg 80%
    12:00 +13°C° 0 mm 12 mps 757 mmHg 77%
    13:00 +13°C° 0 mm 13 mps 757 mmHg 73%
    14:00 +14°C° 0 mm 13 mps 756 mmHg 70%
    15:00 +14°C° 0 mm 13 mps 756 mmHg 70%
    16:00 +14°C° 0 mm 13 mps 756 mmHg 70%
    17:00 +13°C° 0 mm 13 mps 756 mmHg 70%
    18:00 +13°C° 0 mm 13 mps 756 mmHg 73%
    19:00 +12°C° 0 mm 13 mps 756 mmHg 77%
    20:00 +10°C° 0 mm 12 mps 756 mmHg 80%
    21:00 +10°C° 0.1 mm 12 mps 756 mmHg 83%
    22:00 +9°C° 0.1 mm 11 mps 756 mmHg 87%
    23:00 +8°C° 0.1 mm 10 mps 756 mmHg 90%
    Show more